FW1299 Weather Reports


Display with metric or nautical units.
time (UTC)temp
F
wind
direction
speed
MPH
gust
MPH
rain 1hr
in
rain 24hr
in
rain mn
in
humidity
%
barometer
mb
20260506141058 69 278 3.0 15.0 0.00 0.00 0.00 75 1009.5
20260506140100 69 229 3.0 10.0 0.00 0.00 0.00 75 1009.6
20260506135058 69 245 4.0 11.0 0.00 0.00 0.00 75 1009.5
20260506134059 69 240 3.0 12.0 0.00 0.00 0.00 74 1009.5
20260506133058 69 258 3.0 15.0 0.00 0.00 0.00 75 1009.8
20260506132100 69 98 4.0 13.0 0.00 0.00 0.00 74 1009.6
20260506131059 69 226 3.0 11.0 0.00 0.00 0.00 76 1009.6
20260506130100 68 252 3.0 9.0 0.00 0.00 0.00 76 1009.7
20260506125058 68 320 3.0 11.0 0.00 0.00 0.00 77 1009.3
20260506124059 68 135 3.0 11.0 0.00 0.00 0.00 78 1009.3
20260506122100 67 277 2.0 12.0 0.00 0.00 0.00 78 1009.6
20260506120056 66 219 2.0 13.0 0.00 0.00 0.00 79 1009.7
20260506115055 66 138 3.0 11.0 0.00 0.00 0.00 79 1009.7
20260506114057 66 281 2.0 11.0 0.00 0.00 0.00 79 1010.0
20260506113058 66 283 2.0 11.0 0.00 0.00 0.00 80 1009.9
20260506112057 66 174 1.0 6.0 0.00 0.00 0.00 81 1009.9
20260506111056 65 142 2.0 9.0 0.00 0.00 0.00 82 1009.9
20260506110057 65 144 2.0 15.0 0.00 0.00 0.00 82 1009.8
20260506105057 64 203 2.0 11.0 0.00 0.00 0.00 83 1009.7
20260506104049 64 152 2.0 7.0 0.00 0.00 0.00 84 1009.6
20260506103049 63 127 1.0 6.0 0.00 0.00 0.00 84 1009.6
20260506102045 63 233 2.0 7.0 0.00 0.00 0.00 84 1009.8
20260506101045 63 180 1.0 6.0 0.00 0.00 0.00 84 1009.6
20260506095045 64 136 2.0 7.0 0.00 0.00 0.00 84 1009.4
20260506094041 64 212 1.0 8.0 0.00 0.00 0.00 84 1009.3
20260506093042 64 306 1.0 7.0 0.00 0.00 0.00 84 1009.5
20260506092042 64 269 2.0 11.0 0.00 0.00 0.00 83 1009.3
20260506090036 64 139 1.0 10.0 0.00 0.00 0.00 83 1009.5
20260506085037 64 207 2.0 8.0 0.00 0.00 0.00 83 1009.5
20260506084035 64 237 2.0 9.0 0.00 0.00 0.00 83 1009.6
20260506083035 64 217 1.0 9.0 0.00 0.00 0.00 83 1009.6
20260506082035 65 139 2.0 9.0 0.00 0.00 0.00 83 1009.6
20260506081034 65 259 2.0 7.0 0.00 0.00 0.00 83 1009.6
20260506073031 65 252 1.0 7.0 0.00 0.00 0.00 81 1009.7
20260506062033 66 232 2.0 8.0 0.00 0.00 0.00 78 1010.0
20260506061029 66 201 1.0 8.0 0.00 0.00 0.00 78 1010.0
20260506051030 67 250 1.0 6.0 0.00 0.00 0.00 74 1010.3
20260506045031 68 177 2.0 8.0 0.00 0.00 0.00 73 1010.3
20260506044030 68 188 1.0 5.0 0.00 0.00 0.00 72 1010.4
20260506042033 68 147 1.0 7.0 0.00 0.00 0.00 72 1010.4
20260506041030 68 212 1.0 8.0 0.00 0.00 0.00 71 1010.3
20260506040035 68 136 2.0 8.0 0.00 0.00 0.00 70 1010.3
20260506035025 68 165 2.0 6.0 0.00 0.00 0.00 70 1010.4
20260506033028 69 130 1.0 6.0 0.00 0.00 0.00 69 1010.3
20260506032024 69 158 2.0 8.0 0.00 0.00 0.00 68 1010.3
20260506031024 69 147 2.0 8.0 0.00 0.00 0.00 68 1010.2
20260506030028 69 184 1.0 10.0 0.00 0.00 0.00 68 1010.3
20260506025028 69 207 1.0 4.0 0.00 0.00 0.00 67 1010.2
20260506024028 69 211 1.0 7.0 0.00 0.00 0.00 66 1010.4
20260506023030 70 190 1.0 9.0 0.00 0.00 0.00 65 1010.4
20260506022012 71 162 0.0 6.0 0.00 0.00 0.00 64 1010.4
20260506021018 71 148 1.0 5.0 0.00 0.00 0.00 64 1010.4
20260506020012 71 160 2.0 10.0 0.00 0.00 0.00 63 1010.3
20260506015012 72 150 2.0 9.0 0.00 0.00 0.00 62 1010.3
20260506014011 72 186 3.0 9.0 0.00 0.00 0.00 61 1010.1
20260506013012 73 169 4.0 13.0 0.00 0.00 0.00 60 1010.1
20260506012019 73 207 3.0 12.0 0.00 0.00 0.00 59 1010.1
20260506011012 73 314 3.0 12.0 0.00 0.00 0.00 57 1009.8
20260506010012 74 49 3.0 12.0 0.00 0.00 0.00 56 1009.7
20260506004006 75 188 3.0 8.0 0.00 0.00 0.00 51 1009.3
20260506003007 76 165 2.0 8.0 0.00 0.00 0.00 49 1009.1
20260506002006 76 160 3.0 9.0 0.00 0.00 0.00 48 1009.3
20260506001006 77 149 1.0 9.0 0.00 0.00 0.00 48 1009.0
20260506000007 77 210 2.0 10.0 0.00 0.00 0.00 48 1009.0
20260505235006 77 153 3.0 10.0 0.00 0.00 0.00 47 1009.2
20260505232005 79 234 3.0 12.0 0.00 0.00 0.00 43 1008.7
20260505231003 80 266 4.0 13.0 0.00 0.00 0.00 41 1008.4
20260505230004 80 236 5.0 18.0 0.00 0.00 0.00 41 1008.5
20260505225003 80 262 4.0 14.0 0.00 0.00 0.00 39 1008.4
20260505224004 80 217 5.0 15.0 0.00 0.00 0.00 38 1008.4
20260505223003 81 214 4.0 12.0 0.00 0.00 0.00 38 1008.5
20260505221005 82 119 6.0 16.0 0.00 0.00 0.00 37 1008.4
20260505215000 82 233 6.0 15.0 0.00 0.00 0.00 35 1008.1
20260505213957 83 229 8.0 21.0 0.00 0.00 0.00 33 1007.9
20260505212958 83 274 5.0 18.0 0.00 0.00 0.00 35 1007.8
20260505210957 84 269 6.0 22.0 0.00 0.00 0.00 35 1007.9
20260505203957 83 176 7.0 18.0 0.00 0.00 0.00 36 1007.7
20260505202958 84 252 6.0 17.0 0.00 0.00 0.00 38 1007.8
20260505200958 83 262 5.0 14.0 0.00 0.00 0.00 39 1007.8
20260505195957 83 143 7.0 18.0 0.00 0.00 0.00 39 1008.0
20260505195000 83 209 6.0 18.0 0.00 0.00 0.00 40 1008.0
20260505192951 84 200 6.0 16.0 0.00 0.00 0.00 41 1008.3
20260505191949 84 183 6.0 16.0 0.00 0.00 0.00 40 1008.4
20260505184949 83 251 6.0 18.0 0.00 0.00 0.00 42 1008.8
20260505183949 83 265 5.0 13.0 0.00 0.00 0.00 41 1009.0
20260505181947 83 174 6.0 19.0 0.00 0.00 0.00 41 1009.3
20260505180947 83 58 5.0 13.0 0.00 0.00 0.00 45 1009.2
20260505175948 83 218 5.0 12.0 0.00 0.00 0.00 47 1009.5
20260505174948 83 234 4.0 15.0 0.00 0.00 0.00 42 1009.5
20260505173947 83 230 3.0 13.0 0.00 0.00 0.00 46 1009.6
20260505172948 83 300 3.0 10.0 0.00 0.00 0.00 48 1009.6
20260505171946 82 148 4.0 12.0 0.00 0.00 0.00 48 1009.8
20260505170948 83 263 3.0 8.0 0.00 0.00 0.00 49 1009.9
20260505165950 82 220 3.0 9.0 0.00 0.00 0.00 49 1009.9
20260505164942 82 266 2.0 9.0 0.00 0.00 0.00 51 1010.0
20260505163943 82 145 2.0 9.0 0.00 0.00 0.00 51 1010.0
20260505162941 82 216 2.0 9.0 0.00 0.00 0.00 52 1010.0
20260505160941 81 157 3.0 7.0 0.00 0.00 0.00 50 1010.1
20260505152941 79 184 3.0 9.0 0.00 0.00 0.00 53 1010.8
20260505151936 78 281 3.0 9.0 0.00 0.00 0.00 53 1010.8
20260505150934 78 193 3.0 7.0 0.00 0.00 0.00 54 1010.7